Coffman Cove, AK

8:48 PM AKDT on August 28, 2016 (GMT -0800)
Ketchikan International

Weather History for PAKT - September, 2012

Change the Weather History Date:

Saturday, September 22, 2012

  Actual Average Record
Temperature  
Mean Temperature 55 °F -  
Max Temperature 59 °F 59 °F 73 °F (1952)
Min Temperature 53 °F 46 °F 34 °F (2003)
Degree Days  
Heating Degree Days 10    
Growing Degree Days 5 (Base 50)    
Moisture  
Dew Point 50 °F    
Average Humidity 84    
Maximum Humidity 97    
Minimum Humidity 69    
Precipitation  
Precipitation 0.00 in - - ()
Sea Level Pressure  
Sea Level Pressure 30.10 in    
Wind  
Wind Speed 10 mph (SE)    
Max Wind Speed 16 mph    
Max Gust Speed 24 mph    
Visibility 10 miles    
Events      
Averages and records for this station are not official NWS values.
T = Trace of Precipitation, MM = Missing Value Source: NWS Daily Summary

Daily Weather History Graph

Daily Weather History Graph

Search for Another Location

Airport or City:

Trip Planner

Search our weather history database for the weather conditions in past years. The results will help you decide how hot, cold, wet, or windy it might be!

Date:

Astronomy

Sep. 22, 2012 Rise Set
Actual Time 6:33 AM AKDT 6:43 PM AKDT
Civil Twilight 5:56 AM AKDT 7:20 PM AKDT
Nautical Twilight 5:13 AM AKDT 8:03 PM AKDT
Astronomical Twilight 4:27 AM AKDT 8:49 PM AKDT
Moon 2:59 PM AKDT (9/22) 10:56 PM AKDT (9/22)
Length of Visible Light 13h 23m
Length of Day
12h 10m
Waxing Crescent, 50% of the Moon is Illuminated
Sep 22
Waxing Crescent
Sep 29
Full
Oct 7
Last Quarter
Oct 15
New
Oct 21
First Quarter

Hourly Weather History & Observations

Time (AKDT) Temp. Dew Point Humidity Pressure Visibility Wind Dir Wind Speed Gust Speed Precip Events Conditions
12:53 AM 54.0 °F 52.0 °F 93% 30.12 in 10.0 mi SE 6.9 mph - N/A   Overcast
1:53 AM 53.1 °F 52.0 °F 96% 30.11 in 9.0 mi SE 9.2 mph - N/A   Overcast
2:53 AM 53.1 °F 52.0 °F 96% 30.11 in 7.0 mi SSE 5.8 mph - N/A   Overcast
3:53 AM 53.1 °F 52.0 °F 96% 30.11 in 10.0 mi SE 9.2 mph - N/A   Overcast
4:53 AM 53.1 °F 52.0 °F 96% 30.11 in 10.0 mi SSE 8.1 mph - N/A   Overcast
5:53 AM 53.1 °F 52.0 °F 96% 30.11 in 10.0 mi SSE 8.1 mph - N/A   Overcast
6:06 AM 53.6 °F 51.8 °F 94% 30.11 in 10.0 mi South 6.9 mph - N/A   Overcast
6:53 AM 54.0 °F 52.0 °F 93% 30.12 in 10.0 mi SSE 8.1 mph - N/A   Overcast
7:53 AM 54.0 °F 53.1 °F 97% 30.11 in 10.0 mi SSE 9.2 mph - 0.00 in   Overcast
8:53 AM 55.0 °F 51.1 °F 86% 30.11 in 10.0 mi SE 11.5 mph - N/A   Overcast
9:53 AM 55.0 °F 51.1 °F 86% 30.12 in 10.0 mi SE 10.4 mph - N/A   Overcast
10:53 AM 55.0 °F 51.1 °F 86% 30.11 in 10.0 mi SE 16.1 mph - N/A   Overcast
11:53 AM 55.9 °F 51.1 °F 84% 30.11 in 10.0 mi SE 12.7 mph - N/A   Overcast
12:53 PM 57.0 °F 50.0 °F 77% 30.09 in 10.0 mi SE 13.8 mph - N/A   Overcast
1:53 PM 57.0 °F 50.0 °F 77% 30.10 in 10.0 mi SE 11.5 mph 20.7 mph N/A   Overcast
2:53 PM 57.9 °F 50.0 °F 75% 30.09 in 10.0 mi SE 15.0 mph 21.9 mph N/A   Overcast
3:53 PM 57.9 °F 50.0 °F 75% 30.08 in 10.0 mi SE 8.1 mph - N/A   Overcast
4:53 PM 57.9 °F 50.0 °F 75% 30.07 in 10.0 mi SE 11.5 mph 20.7 mph N/A   Overcast
5:53 PM 57.9 °F 50.0 °F 75% 30.05 in 10.0 mi SSE 11.5 mph - N/A   Overcast
6:53 PM 57.0 °F 48.9 °F 74% 30.06 in 10.0 mi SE 13.8 mph - N/A   Mostly Cloudy
7:53 PM 55.9 °F 48.0 °F 75% 30.07 in 10.0 mi SSE 9.2 mph - N/A   Overcast
8:53 PM 55.9 °F 48.9 °F 77% 30.08 in 10.0 mi SE 13.8 mph 24.2 mph N/A   Overcast
9:53 PM 55.9 °F 46.9 °F 72% 30.08 in 10.0 mi SE 10.4 mph 21.9 mph N/A   Overcast
10:53 PM 57.0 °F 46.9 °F 69% 30.09 in 10.0 mi SE 11.5 mph - N/A   Overcast
11:53 PM 57.0 °F 46.9 °F 69% 30.09 in 10.0 mi SE 12.7 mph - N/A   Overcast